Zurück zum Katalog

DELTA 1 DEB

AktivSSO
NORAD 42556·DEBRIS·🇺🇸 United States

Gestartet Jul 23, 1972 von Vandenberg Space Force Base

Loading…

Nächste Überflüge (nächste 24 Stunden)

TLE

AktuellSource: Space-Track

Epoche: Sep 13, 2026, 09:55 UTC

1 42556U 72058JP  26256.41327652  .00001480  00000-0  47544-3 0  9995
2 42556  98.4428 317.0969 0269311 181.0720 178.9916 14.22176839659852

Verfolge DELTA 1 DEB in Echtzeit mit AllMySat

Download on the App Store